Zurück zum Katalog

GALAXY 12

AktivKommunikationGEO
NORAD 27715·PAYLOAD· XX

Gestartet Apr 9, 2003 von Guiana Space Centre

Loading…

TLE

AktuellSource: Space-Track

Epoche: Sep 14, 2026, 13:07 UTC

1 27715U 03013B   26257.54692088 -.00000108  00000-0  00000-0 0  9993
2 27715   7.2082  68.2037 0002743 283.2489  29.2574  0.98987165 52842

Verfolge GALAXY 12 in Echtzeit mit AllMySat

Download on the App Store